ENGINEERING TRACK TESTING
Weather & Rail Temperature Monitoring
Weather station RHINECLIFF
Rhinecliff Passenger Station
Measurement History
![]() ENGINEERING TRACK TESTING Weather station RHINECLIFF Rhinecliff Passenger Station Measurement History ![]() |
Conditions for past 24 hours (since 09/01/2026 01:31 AM)
| Time | Track 1 E rail | Track 1 E rail (B) | Track 1 W rail | Track 1 W rail (B) | Outside Air Temperature |
Solar Radiation |
Max. Wind | Humidity | Air Pressure | Rain | |
| Speed | Dir | ||||||||||
| 09/02/2026 01:15 AM | 68 °F | 68 °F | 67 °F | 67 °F | 65.9 °F | 0 watt/m2 | 0 mph | --- | 89 % | 30.032 in Hg | 0 in |
| 09/02/2026 01:00 AM | 68 °F | 68 °F | 67 °F | 67 °F | 65.9 °F | 0 watt/m2 | 0 mph | --- | 89 % | 30.026 in Hg | 0 in |
| 09/02/2026 12:45 AM | 68 °F | 68 °F | 68 °F | 68 °F | 65.9 °F | 0 watt/m2 | 0 mph | --- | 89 % | 30.024 in Hg | 0 in |
| 09/02/2026 12:30 AM | 68 °F | 68 °F | 68 °F | 68 °F | 66.1 °F | 0 watt/m2 | 0 mph | --- | 88 % | 30.021 in Hg | 0 in |
| 09/02/2026 12:15 AM | 68 °F | 68 °F | 68 °F | 68 °F | 66.3 °F | 0 watt/m2 | 0 mph | --- | 88 % | 30.016 in Hg | 0 in |
| 09/02/2026 12:00 AM | 68 °F | 68 °F | 68 °F | 68 °F | 66.4 °F | 0 watt/m2 | 0 mph | --- | 88 % | 30.014 in Hg | 0 in |
| 09/01/2026 11:45 PM | 69 °F | 69 °F | 69 °F | 69 °F | 66.6 °F | 0 watt/m2 | 0 mph | --- | 89 % | 30.002 in Hg | 0 in |
| 09/01/2026 11:30 PM | 69 °F | 69 °F | 69 °F | 69 °F | 66.7 °F | 0 watt/m2 | 0 mph | --- | 89 % | 30.001 in Hg | 0 in |
| 09/01/2026 11:15 PM | 70 °F | 70 °F | 69 °F | 69 °F | 67 °F | 0 watt/m2 | 0 mph | --- | 89 % | 29.999 in Hg | 0 in |
| 09/01/2026 11:00 PM | 69 °F | 68 °F | 68 °F | 68 °F | 67.1 °F | 0 watt/m2 | 0 mph | --- | 89 % | 29.992 in Hg | 0 in |
| 09/01/2026 10:45 PM | 69 °F | 69 °F | 69 °F | 68 °F | 67.3 °F | 0 watt/m2 | 0 mph | --- | 89 % | 29.992 in Hg | 0 in |
| 09/01/2026 10:30 PM | 69 °F | 69 °F | 69 °F | 69 °F | 67.3 °F | 0 watt/m2 | 0 mph | --- | 89 % | 29.98 in Hg | 0 in |
| 09/01/2026 10:15 PM | 69 °F | 69 °F | 69 °F | 69 °F | 67.5 °F | 0 watt/m2 | 0 mph | --- | 89 % | 29.983 in Hg | 0 in |
| 09/01/2026 10:00 PM | 70 °F | 69 °F | 69 °F | 69 °F | 67.8 °F | 0 watt/m2 | 0 mph | --- | 89 % | 29.985 in Hg | 0 in |
| 09/01/2026 09:45 PM | 70 °F | 70 °F | 70 °F | 69 °F | 68.1 °F | 0 watt/m2 | 0 mph | --- | 89 % | 29.982 in Hg | 0 in |
| 09/01/2026 09:30 PM | 70 °F | 70 °F | 70 °F | 70 °F | 68.3 °F | 0 watt/m2 | 0 mph | --- | 88 % | 29.974 in Hg | 0 in |
| 09/01/2026 09:15 PM | 70 °F | 70 °F | 70 °F | 70 °F | 68.5 °F | 0 watt/m2 | 0 mph | --- | 87 % | 29.969 in Hg | 0 in |
| 09/01/2026 09:00 PM | 71 °F | 70 °F | 70 °F | 70 °F | 68.8 °F | 0 watt/m2 | 0 mph | --- | 88 % | 29.964 in Hg | 0 in |
| 09/01/2026 08:45 PM | 71 °F | 71 °F | 70 °F | 70 °F | 69.1 °F | 0 watt/m2 | 0 mph | --- | 89 % | 29.953 in Hg | 0 in |
| 09/01/2026 08:30 PM | 71 °F | 71 °F | 71 °F | 71 °F | 69.6 °F | 0 watt/m2 | 0 mph | --- | 90 % | 29.94 in Hg | 0 in |
| 09/01/2026 08:15 PM | 72 °F | 72 °F | 71 °F | 71 °F | 70 °F | 0 watt/m2 | 2 mph | NE | 91 % | 29.938 in Hg | 0 in |
| 09/01/2026 08:00 PM | 72 °F | 72 °F | 72 °F | 72 °F | 70.6 °F | 0 watt/m2 | 0 mph | --- | 93 % | 29.93 in Hg | 0 in |
| 09/01/2026 07:45 PM | 72 °F | 72 °F | 72 °F | 72 °F | 70.9 °F | 0 watt/m2 | 1 mph | NE | 94 % | 29.922 in Hg | 0 in |
| 09/01/2026 07:30 PM | 72 °F | 72 °F | 72 °F | 72 °F | 71 °F | 0 watt/m2 | 2 mph | NE | 94 % | 29.926 in Hg | 0 in |
| 09/01/2026 07:15 PM | 73 °F | 73 °F | 72 °F | 72 °F | 71.1 °F | 0 watt/m2 | 8 mph | NE | 93 % | 29.926 in Hg | 0 in |
| 09/01/2026 07:00 PM | 74 °F | 73 °F | 73 °F | 73 °F | 71.4 °F | 6 watt/m2 | 10 mph | ENE | 93 % | 29.922 in Hg | 0 in |
| 09/01/2026 06:45 PM | 74 °F | 74 °F | 74 °F | 74 °F | 71.8 °F | 9 watt/m2 | 10 mph | N | 93 % | 29.919 in Hg | 0 in |
| 09/01/2026 06:30 PM | 75 °F | 75 °F | 74 °F | 74 °F | 72.2 °F | 11 watt/m2 | 8 mph | NE | 94 % | 29.914 in Hg | 0 in |
| 09/01/2026 06:15 PM | 75 °F | 75 °F | 75 °F | 75 °F | 72.1 °F | 33 watt/m2 | 6 mph | NE | 94 % | 29.91 in Hg | 0 in |
| 09/01/2026 06:00 PM | 75 °F | 76 °F | 75 °F | 75 °F | 72.3 °F | 39 watt/m2 | 7 mph | NNE | 94 % | 29.906 in Hg | 0 in |
| 09/01/2026 05:45 PM | 76 °F | 76 °F | 75 °F | 75 °F | 72.4 °F | 63 watt/m2 | 9 mph | NNE | 94 % | 29.903 in Hg | 0 in |
| 09/01/2026 05:30 PM | 76 °F | 76 °F | 75 °F | 75 °F | 72.5 °F | 68 watt/m2 | 8 mph | N | 94 % | 29.9 in Hg | 0 in |
| 09/01/2026 05:15 PM | 76 °F | 76 °F | 76 °F | 76 °F | 72.6 °F | 43 watt/m2 | 13 mph | N | 94 % | 29.899 in Hg | 0.01 in |
| 09/01/2026 05:00 PM | 78 °F | 78 °F | 78 °F | 77 °F | 72.9 °F | 25 watt/m2 | 11 mph | N | 94 % | 29.899 in Hg | 0.03 in |
| 09/01/2026 04:45 PM | 81 °F | 81 °F | 81 °F | 80 °F | 73.3 °F | 72 watt/m2 | 15 mph | N | 93 % | 29.889 in Hg | 0.01 in |
| 09/01/2026 04:30 PM | 82 °F | 83 °F | 83 °F | 81 °F | 73.8 °F | 79 watt/m2 | 12 mph | N | 92 % | 29.886 in Hg | 0 in |
| 09/01/2026 04:15 PM | 83 °F | 84 °F | 84 °F | 83 °F | 74.1 °F | 78 watt/m2 | 12 mph | N | 91 % | 29.887 in Hg | 0 in |
| 09/01/2026 04:00 PM | 84 °F | 85 °F | 85 °F | 84 °F | 74.2 °F | 80 watt/m2 | 14 mph | N | 92 % | 29.88 in Hg | 0 in |
| 09/01/2026 03:45 PM | 86 °F | 87 °F | 87 °F | 85 °F | 74.8 °F | 53 watt/m2 | 14 mph | N | 91 % | 29.881 in Hg | 0 in |
| 09/01/2026 03:30 PM | 88 °F | 89 °F | 89 °F | 88 °F | 75.6 °F | 75 watt/m2 | 13 mph | N | 90 % | 29.88 in Hg | 0 in |
| 09/01/2026 03:15 PM | 91 °F | 91 °F | 92 °F | 91 °F | 77 °F | 87 watt/m2 | 12 mph | N | 87 % | 29.875 in Hg | 0 in |
| 09/01/2026 03:00 PM | 93 °F | 93 °F | 94 °F | 93 °F | 78.4 °F | 95 watt/m2 | 3 mph | SSW | 83 % | 29.87 in Hg | 0 in |
| 09/01/2026 02:45 PM | 95 °F | 94 °F | 97 °F | 95 °F | 78.9 °F | 163 watt/m2 | 3 mph | SSW | 82 % | 29.87 in Hg | 0 in |
| 09/01/2026 02:30 PM | 95 °F | 95 °F | 98 °F | 96 °F | 79 °F | 414 watt/m2 | 5 mph | SSW | 82 % | 29.873 in Hg | 0 in |
| 09/01/2026 02:15 PM | 93 °F | 93 °F | 96 °F | 93 °F | 78.3 °F | 689 watt/m2 | 4 mph | SSW | 84 % | 29.87 in Hg | 0 in |
| 09/01/2026 02:00 PM | 89 °F | 90 °F | 92 °F | 90 °F | 77.1 °F | 421 watt/m2 | 1 mph | SSW | 86 % | 29.869 in Hg | 0 in |
| 09/01/2026 01:45 PM | 88 °F | 88 °F | 90 °F | 88 °F | 76.5 °F | 197 watt/m2 | 0 mph | --- | 87 % | 29.873 in Hg | 0 in |
| 09/01/2026 01:30 PM | 88 °F | 88 °F | 90 °F | 88 °F | 76.1 °F | 256 watt/m2 | 6 mph | SSW | 88 % | 29.873 in Hg | 0 in |
| 09/01/2026 01:15 PM | 87 °F | 87 °F | 89 °F | 87 °F | 75.7 °F | 242 watt/m2 | 7 mph | SSW | 88 % | 29.871 in Hg | 0 in |
| 09/01/2026 01:00 PM | 86 °F | 86 °F | 88 °F | 87 °F | 75.1 °F | 322 watt/m2 | 5 mph | SSW | 90 % | 29.871 in Hg | 0 in |
| 09/01/2026 12:45 PM | 85 °F | 85 °F | 86 °F | 86 °F | 74.6 °F | 309 watt/m2 | 8 mph | SSW | 90 % | 29.876 in Hg | 0 in |
| 09/01/2026 12:30 PM | 83 °F | 83 °F | 84 °F | 83 °F | 74 °F | 311 watt/m2 | 7 mph | SSW | 91 % | 29.878 in Hg | 0 in |
| 09/01/2026 12:15 PM | 80 °F | 81 °F | 81 °F | 81 °F | 73.4 °F | 183 watt/m2 | 0 mph | --- | 93 % | 29.885 in Hg | 0 in |
| 09/01/2026 12:00 PM | 80 °F | 81 °F | 81 °F | 81 °F | 73 °F | 231 watt/m2 | 4 mph | SSW | 94 % | 29.898 in Hg | 0 in |
| 09/01/2026 11:45 AM | 78 °F | 79 °F | 79 °F | 79 °F | 72.3 °F | 226 watt/m2 | 6 mph | SSW | 94 % | 29.905 in Hg | 0 in |
| 09/01/2026 11:30 AM | 77 °F | 77 °F | 77 °F | 77 °F | 72 °F | 153 watt/m2 | 5 mph | SSW | 95 % | 29.91 in Hg | 0 in |
| 09/01/2026 11:15 AM | 77 °F | 77 °F | 77 °F | 77 °F | 71.8 °F | 55 watt/m2 | 4 mph | SSW | 95 % | 29.909 in Hg | 0 in |
| 09/01/2026 11:00 AM | 77 °F | 77 °F | 77 °F | 77 °F | 71.9 °F | 101 watt/m2 | 4 mph | SSW | 95 % | 29.912 in Hg | 0 in |
| 09/01/2026 10:45 AM | 76 °F | 77 °F | 77 °F | 77 °F | 71.7 °F | 216 watt/m2 | 3 mph | SSW | 95 % | 29.912 in Hg | 0 in |
| 09/01/2026 10:30 AM | 75 °F | 75 °F | 75 °F | 75 °F | 71.3 °F | 192 watt/m2 | 3 mph | SSW | 95 % | 29.905 in Hg | 0 in |
| 09/01/2026 10:15 AM | 74 °F | 74 °F | 74 °F | 74 °F | 70.9 °F | 183 watt/m2 | 3 mph | SSW | 96 % | 29.905 in Hg | 0 in |
| 09/01/2026 10:00 AM | 72 °F | 72 °F | 72 °F | 72 °F | 70.5 °F | 114 watt/m2 | 1 mph | SSW | 95 % | 29.912 in Hg | 0 in |
| 09/01/2026 09:45 AM | 71 °F | 71 °F | 71 °F | 71 °F | 70.4 °F | 53 watt/m2 | 3 mph | SSW | 95 % | 29.917 in Hg | 0 in |
| 09/01/2026 09:30 AM | 71 °F | 71 °F | 71 °F | 71 °F | 70.4 °F | 57 watt/m2 | 1 mph | SSW | 95 % | 29.921 in Hg | 0.03 in |
| 09/01/2026 09:15 AM | 71 °F | 71 °F | 71 °F | 71 °F | 70.5 °F | 38 watt/m2 | 1 mph | SSW | 95 % | 29.921 in Hg | 0.02 in |
| 09/01/2026 09:00 AM | 71 °F | 70 °F | 70 °F | 70 °F | 70.3 °F | 39 watt/m2 | 0 mph | --- | 95 % | 29.931 in Hg | 0.04 in |
| 09/01/2026 08:45 AM | 70 °F | 70 °F | 70 °F | 70 °F | 70.2 °F | 17 watt/m2 | 0 mph | --- | 94 % | 29.928 in Hg | 0.03 in |
| 09/01/2026 08:30 AM | 70 °F | 70 °F | 70 °F | 70 °F | 70.2 °F | 19 watt/m2 | 2 mph | SSW | 94 % | 29.92 in Hg | 0 in |
| 09/01/2026 08:15 AM | 70 °F | 70 °F | 70 °F | 70 °F | 70.2 °F | 17 watt/m2 | 3 mph | SSW | 94 % | 29.929 in Hg | 0 in |
| 09/01/2026 08:00 AM | 70 °F | 70 °F | 70 °F | 70 °F | 70.2 °F | 17 watt/m2 | 0 mph | --- | 94 % | 29.921 in Hg | 0 in |
| 09/01/2026 07:45 AM | 70 °F | 70 °F | 70 °F | 70 °F | 70.1 °F | 20 watt/m2 | 0 mph | --- | 94 % | 29.919 in Hg | 0.01 in |
| 09/01/2026 07:30 AM | 70 °F | 70 °F | 70 °F | 70 °F | 70 °F | 38 watt/m2 | 1 mph | SSW | 94 % | 29.915 in Hg | 0 in |
| 09/01/2026 07:15 AM | 70 °F | 69 °F | 69 °F | 69 °F | 69.9 °F | 8 watt/m2 | 2 mph | SSW | 94 % | 29.916 in Hg | 0 in |
| 09/01/2026 07:00 AM | 70 °F | 69 °F | 69 °F | 69 °F | 69.9 °F | 0 watt/m2 | 0 mph | --- | 94 % | 29.919 in Hg | 0.01 in |
| 09/01/2026 06:45 AM | 70 °F | 69 °F | 69 °F | 69 °F | 69.8 °F | 0 watt/m2 | 1 mph | SSW | 94 % | 29.916 in Hg | 0 in |
| 09/01/2026 06:30 AM | 70 °F | 69 °F | 69 °F | 69 °F | 69.6 °F | 0 watt/m2 | 3 mph | SSW | 94 % | 29.918 in Hg | 0 in |
| 09/01/2026 06:15 AM | 70 °F | 69 °F | 69 °F | 69 °F | 69.5 °F | 0 watt/m2 | 4 mph | SSW | 94 % | 29.911 in Hg | 0 in |
| 09/01/2026 06:00 AM | 69 °F | 69 °F | 69 °F | 69 °F | 69.5 °F | 0 watt/m2 | 3 mph | SSW | 95 % | 29.912 in Hg | 0 in |
| 09/01/2026 05:45 AM | 69 °F | 69 °F | 69 °F | 69 °F | 69.4 °F | 0 watt/m2 | 3 mph | SSW | 95 % | 29.914 in Hg | 0 in |
| 09/01/2026 05:30 AM | 69 °F | 69 °F | 69 °F | 69 °F | 69.2 °F | 0 watt/m2 | 2 mph | SSW | 94 % | 29.912 in Hg | 0 in |
| 09/01/2026 05:15 AM | 69 °F | 69 °F | 69 °F | 69 °F | 69.2 °F | 0 watt/m2 | 3 mph | SSW | 94 % | 29.917 in Hg | 0 in |
| 09/01/2026 05:00 AM | 69 °F | 69 °F | 69 °F | 69 °F | 69 °F | 0 watt/m2 | 3 mph | SSW | 94 % | 29.918 in Hg | 0 in |
| 09/01/2026 04:45 AM | 69 °F | 69 °F | 69 °F | 69 °F | 69 °F | 0 watt/m2 | 2 mph | SSW | 94 % | 29.918 in Hg | 0 in |
| 09/01/2026 04:30 AM | 69 °F | 69 °F | 69 °F | 69 °F | 68.9 °F | 0 watt/m2 | 3 mph | SSW | 94 % | 29.924 in Hg | 0 in |
| 09/01/2026 04:15 AM | 69 °F | 69 °F | 69 °F | 69 °F | 68.9 °F | 0 watt/m2 | 1 mph | SSW | 94 % | 29.927 in Hg | 0 in |
| 09/01/2026 04:00 AM | 69 °F | 69 °F | 69 °F | 69 °F | 68.9 °F | 0 watt/m2 | 1 mph | SSW | 94 % | 29.927 in Hg | 0 in |
| 09/01/2026 03:45 AM | 69 °F | 69 °F | 69 °F | 69 °F | 68.9 °F | 0 watt/m2 | 0 mph | --- | 94 % | 29.937 in Hg | 0 in |
| 09/01/2026 03:30 AM | 69 °F | 69 °F | 69 °F | 69 °F | 68.8 °F | 0 watt/m2 | 2 mph | SSW | 94 % | 29.941 in Hg | 0 in |
| 09/01/2026 03:15 AM | 69 °F | 69 °F | 69 °F | 69 °F | 68.8 °F | 0 watt/m2 | 0 mph | --- | 94 % | 29.942 in Hg | 0 in |
| 09/01/2026 03:00 AM | 69 °F | 69 °F | 69 °F | 69 °F | 68.9 °F | 0 watt/m2 | 7 mph | SSW | 94 % | 29.945 in Hg | 0 in |
| 09/01/2026 02:45 AM | 69 °F | 69 °F | 69 °F | 69 °F | 68.8 °F | 0 watt/m2 | 0 mph | --- | 94 % | 29.948 in Hg | 0 in |
| 09/01/2026 02:30 AM | 70 °F | 69 °F | 69 °F | 69 °F | 68.9 °F | 0 watt/m2 | 0 mph | --- | 94 % | 29.946 in Hg | 0 in |
| 09/01/2026 02:15 AM | 70 °F | 69 °F | 69 °F | 69 °F | 68.9 °F | 0 watt/m2 | 0 mph | --- | 93 % | 29.954 in Hg | 0 in |
| 09/01/2026 02:00 AM | 70 °F | 69 °F | 69 °F | 69 °F | 68.9 °F | 0 watt/m2 | 0 mph | --- | 93 % | 29.96 in Hg | 0 in |
| 09/01/2026 01:45 AM | 70 °F | 70 °F | 69 °F | 70 °F | 69 °F | 0 watt/m2 | 0 mph | --- | 93 % | 29.96 in Hg | 0 in |